TAP571 EDDF-LPPT

Flight info

Callsign TAP571
Flight time N/A
Altitude 37000
Route SOBRA2L/18 SOBRA Y180 DIK UN857 TOLVU DCT RAPOR DCT GIMER DCT ESTOC UT300 PON UN872 ERIGA UZ218 FUJTI DCT ATLEN DCT ABUPI DCT XAMAX
Aircraft A21N/M-SADE1E2E3FGHIJ1J3J7M3P2RWXYZ/LB1D1

Departure

Time 2026-05-05 16:45
Airport Frankfurt Main Airport (EDDF)

Arrival

Time N/A
Airport Lisbon Humberto Delgado Airport (LPPT)
Time Latitude Longitude Altitude Speed Heading
2026-05-05 15:41 50.04414 8.56216 361 ft 0 kts 159°
2026-05-05 16:09 50.04415 8.56222 365 ft 0 kts 159°
2026-05-05 16:30 50.04415 8.56221 361 ft 1 kts 159°
2026-05-05 16:30 50.04438 8.56208 362 ft 4 kts 160°
2026-05-05 16:30 50.04462 8.56199 364 ft 4 kts 189°
2026-05-05 16:30 50.04479 8.56216 361 ft 3 kts 248°
2026-05-05 16:31 50.04476 8.56202 361 ft 4 kts 249°
2026-05-05 16:31 50.04466 8.56163 361 ft 4 kts 249°
2026-05-05 16:31 50.04459 8.56131 365 ft 0 kts 249°
2026-05-05 16:36 50.04455 8.56114 365 ft 3 kts 250°
2026-05-05 16:36 50.04445 8.56074 362 ft 5 kts 249°
2026-05-05 16:36 50.04413 8.56021 367 ft 8 kts 196°
2026-05-05 16:36 50.04380 8.56030 365 ft 3 kts 158°
2026-05-05 16:37 50.04354 8.56050 363 ft 6 kts 153°
2026-05-05 16:37 50.04346 8.56054 364 ft 0 kts 163°
2026-05-05 16:38 50.04327 8.56062 362 ft 6 kts 168°
2026-05-05 16:38 50.04274 8.56031 362 ft 14 kts 230°
2026-05-05 16:38 50.04224 8.55873 365 ft 18 kts 247°
2026-05-05 16:39 50.04178 8.55682 361 ft 20 kts 250°
2026-05-05 16:39 50.04128 8.55474 357 ft 21 kts 250°
2026-05-05 16:39 50.04075 8.55252 361 ft 23 kts 250°
2026-05-05 16:39 50.04019 8.55013 360 ft 24 kts 250°
2026-05-05 16:40 50.03963 8.54779 363 ft 19 kts 250°
2026-05-05 16:40 50.03915 8.54579 359 ft 20 kts 249°
2026-05-05 16:40 50.03858 8.54371 358 ft 22 kts 230°
2026-05-05 16:40 50.03787 8.54161 355 ft 23 kts 251°
2026-05-05 16:41 50.03730 8.53922 355 ft 24 kts 252°
2026-05-05 16:41 50.03671 8.53674 350 ft 24 kts 248°
2026-05-05 16:41 50.03605 8.53424 353 ft 26 kts 248°
2026-05-05 16:41 50.03560 8.53214 347 ft 15 kts 251°
2026-05-05 16:42 50.03521 8.53054 349 ft 17 kts 249°
2026-05-05 16:42 50.03476 8.52880 346 ft 18 kts 245°
2026-05-05 16:42 50.03424 8.52693 339 ft 19 kts 248°
2026-05-05 16:42 50.03376 8.52593 340 ft 0 kts 164°
2026-05-05 16:43 50.03375 8.52593 340 ft 0 kts 164°
2026-05-05 16:43 50.03371 8.52593 340 ft 1 kts 181°
2026-05-05 16:43 50.03355 8.52593 339 ft 3 kts 181°
2026-05-05 16:43 50.03324 8.52592 341 ft 6 kts 181°
2026-05-05 16:44 50.03276 8.52590 341 ft 8 kts 181°
2026-05-05 16:44 50.03155 8.52592 339 ft 46 kts 178°
2026-05-05 16:44 50.02599 8.52597 340 ft 110 kts 178°
2026-05-05 16:44 50.01656 8.52608 338 ft 159 kts 180°
2026-05-05 16:45 50.00512 8.52623 769 ft 162 kts 182°
2026-05-05 16:45 49.99346 8.52665 1199 ft 172 kts 180°
2026-05-05 16:45 49.98098 8.52819 1714 ft 189 kts 177°
2026-05-05 16:45 49.96728 8.52833 2302 ft 205 kts 185°
2026-05-05 16:46 49.95204 8.52903 2778 ft 232 kts 177°
2026-05-05 16:46 49.93614 8.53049 3359 ft 225 kts 180°
2026-05-05 16:46 49.92032 8.53151 3862 ft 232 kts 179°
2026-05-05 16:46 49.90455 8.53294 5017 ft 226 kts 178°
2026-05-05 16:47 49.88877 8.53417 5968 ft 229 kts 180°
2026-05-05 16:47 49.87273 8.53357 6851 ft 231 kts 189°
2026-05-05 16:47 49.85639 8.52623 7157 ft 263 kts 201°
2026-05-05 16:47 49.83925 8.51598 8027 ft 264 kts 201°
2026-05-05 16:48 49.82199 8.50570 8908 ft 269 kts 200°
2026-05-05 16:48 49.80420 8.49542 9734 ft 276 kts 202°
2026-05-05 16:48 49.78817 8.47848 10385 ft 291 kts 221°
2026-05-05 16:48 49.77429 8.45392 10693 ft 317 kts 234°
2026-05-05 16:49 49.76398 8.42234 11009 ft 343 kts 251°
2026-05-05 16:49 49.76249 8.38455 11358 ft 366 kts 276°
2026-05-05 16:49 49.76872 8.34602 12153 ft 371 kts 284°
2026-05-05 16:49 49.77586 8.30737 12914 ft 377 kts 283°
2026-05-05 16:50 49.78253 8.26779 13657 ft 382 kts 282°
2026-05-05 16:50 49.78907 8.22763 14314 ft 388 kts 282°
2026-05-05 16:50 49.79564 8.18693 14976 ft 392 kts 282°
2026-05-05 16:50 49.80224 8.14579 15624 ft 396 kts 282°
2026-05-05 16:51 49.80875 8.10469 16238 ft 400 kts 282°
2026-05-05 16:51 49.81548 8.06283 16844 ft 403 kts 282°
2026-05-05 16:51 49.82226 8.02059 17406 ft 406 kts 282°
2026-05-05 16:51 49.82906 7.97794 17980 ft 410 kts 282°
2026-05-05 16:52 49.83586 7.93497 18462 ft 413 kts 282°
2026-05-05 16:52 49.84268 7.89152 18931 ft 416 kts 282°
2026-05-05 16:52 49.84950 7.84786 19387 ft 418 kts 282°
2026-05-05 16:52 49.85637 7.80385 19819 ft 421 kts 281°
2026-05-05 16:53 49.86320 7.75964 20227 ft 423 kts 281°
2026-05-05 16:53 49.87023 7.71521 20640 ft 425 kts 282°
2026-05-05 16:53 49.87726 7.67070 21047 ft 426 kts 282°
2026-05-05 16:53 49.88417 7.62600 21418 ft 427 kts 282°
2026-05-05 16:54 49.89107 7.58102 21754 ft 429 kts 282°
2026-05-05 16:54 49.89798 7.53597 22033 ft 431 kts 282°
2026-05-05 16:54 49.90493 7.49056 22287 ft 433 kts 282°
2026-05-05 16:54 49.91190 7.44506 22541 ft 435 kts 282°
2026-05-05 16:55 49.91882 7.39933 22762 ft 437 kts 282°
2026-05-05 16:55 49.92577 7.35332 22971 ft 438 kts 282°
2026-05-05 16:55 49.93255 7.30719 23136 ft 439 kts 279°
2026-05-05 16:55 49.93390 7.26023 23268 ft 436 kts 263°
2026-05-05 16:56 49.92782 7.21440 23509 ft 432 kts 254°
2026-05-05 16:56 49.92024 7.16964 23856 ft 425 kts 254°
2026-05-05 16:56 49.91292 7.12553 24249 ft 424 kts 255°
2026-05-05 16:56 49.90580 7.08124 24688 ft 414 kts 255°
2026-05-05 16:57 49.89923 7.03957 25202 ft 399 kts 255°
2026-05-05 16:57 49.89261 6.99712 25714 ft 401 kts 255°
2026-05-05 16:57 49.88610 6.95546 26178 ft 403 kts 255°
2026-05-05 16:57 49.87948 6.91315 26630 ft 406 kts 254°
2026-05-05 16:58 49.87278 6.87043 27056 ft 409 kts 254°
2026-05-05 16:58 49.86599 6.82737 27500 ft 412 kts 254°
2026-05-05 16:58 49.85916 6.78422 28051 ft 412 kts 254°
2026-05-05 16:58 49.85232 6.74125 28577 ft 411 kts 253°
2026-05-05 16:59 49.84545 6.69833 28759 ft 410 kts 253°
2026-05-05 16:59 49.83861 6.65546 28792 ft 409 kts 253°
2026-05-05 16:59 49.82495 6.57001 28780 ft 409 kts 253°
2026-05-05 17:00 49.81112 6.48449 29348 ft 409 kts 253°
2026-05-05 17:00 49.80422 6.44189 29876 ft 408 kts 253°
2026-05-05 17:00 49.79743 6.39992 30296 ft 407 kts 253°
2026-05-05 17:01 49.79045 6.35692 30696 ft 407 kts 252°
2026-05-05 17:01 49.78346 6.31429 31072 ft 408 kts 252°
2026-05-05 17:01 49.77649 6.27183 31447 ft 408 kts 252°
2026-05-05 17:01 49.76952 6.22933 31852 ft 406 kts 252°
2026-05-05 17:02 49.76257 6.18706 32256 ft 405 kts 252°
2026-05-05 17:02 49.75559 6.14468 32542 ft 409 kts 252°
2026-05-05 17:02 49.74844 6.10155 32695 ft 417 kts 251°
2026-05-05 17:02 49.74120 6.05781 32807 ft 425 kts 252°
2026-05-05 17:03 49.73380 6.01316 32914 ft 433 kts 252°
2026-05-05 17:03 49.72623 5.96768 33006 ft 440 kts 252°
2026-05-05 17:03 49.71070 5.87481 33222 ft 451 kts 251°
2026-05-05 17:04 49.70278 5.82774 33482 ft 453 kts 252°
2026-05-05 17:04 49.69497 5.78129 33823 ft 453 kts 252°
2026-05-05 17:04 49.68709 5.73436 34105 ft 451 kts 252°
2026-05-05 17:04 49.67919 5.68753 34397 ft 450 kts 252°
2026-05-05 17:05 49.67126 5.64082 34685 ft 449 kts 252°
2026-05-05 17:05 49.66333 5.59411 34825 ft 449 kts 252°
2026-05-05 17:05 49.64744 5.50123 34834 ft 448 kts 252°
2026-05-05 17:06 49.63149 5.40841 34819 ft 447 kts 252°
2026-05-05 17:06 49.61350 5.31660 34796 ft 448 kts 249°
2026-05-05 17:07 49.59396 5.22532 34794 ft 449 kts 249°
2026-05-05 17:07 49.57697 5.13250 34799 ft 450 kts 251°
2026-05-05 17:08 49.56052 5.03939 34803 ft 450 kts 251°
2026-05-05 17:08 49.54381 4.94641 34790 ft 450 kts 251°
2026-05-05 17:09 49.52710 4.85398 34796 ft 452 kts 251°
2026-05-05 17:09 49.51026 4.76058 34788 ft 453 kts 251°
2026-05-05 17:10 49.49360 4.66727 34794 ft 453 kts 251°
2026-05-05 17:10 49.47670 4.57401 34789 ft 452 kts 251°
2026-05-05 17:11 49.45972 4.48089 34787 ft 453 kts 251°
2026-05-05 17:11 49.44252 4.38755 34797 ft 455 kts 251°
2026-05-05 17:12 49.42522 4.29384 34785 ft 456 kts 251°
2026-05-05 17:12 49.40782 4.20029 34780 ft 456 kts 251°
2026-05-05 17:13 49.39035 4.10684 34789 ft 456 kts 251°
2026-05-05 17:13 49.37294 4.01402 34789 ft 455 kts 251°
2026-05-05 17:14 49.35762 3.91961 34781 ft 457 kts 255°
2026-05-05 17:14 49.34404 3.82438 34791 ft 457 kts 255°
2026-05-05 17:15 49.33040 3.72934 34793 ft 457 kts 255°
2026-05-05 17:15 49.31667 3.63425 34797 ft 457 kts 255°
2026-05-05 17:16 49.30289 3.53924 34811 ft 457 kts 255°
2026-05-05 17:16 49.28894 3.44419 34805 ft 457 kts 255°
2026-05-05 17:17 49.27495 3.34924 34796 ft 457 kts 255°
2026-05-05 17:17 49.26087 3.25425 34798 ft 457 kts 255°
2026-05-05 17:18 49.24673 3.15942 34807 ft 457 kts 255°
2026-05-05 17:18 49.23245 3.06453 34809 ft 458 kts 255°
2026-05-05 17:19 49.21816 2.96956 34807 ft 458 kts 255°
2026-05-05 17:19 49.20367 2.87458 34807 ft 458 kts 254°
2026-05-05 17:20 49.19165 2.79575 34814 ft 458 kts 255°
2026-05-05 17:20 49.17715 2.70092 34812 ft 458 kts 254°
2026-05-05 17:21 49.16253 2.60610 34816 ft 458 kts 254°
2026-05-05 17:22 49.14043 2.46411 34819 ft 458 kts 254°
2026-05-05 17:22 49.12708 2.36886 34817 ft 460 kts 259°
2026-05-05 17:23 49.11810 2.27281 34818 ft 460 kts 260°
2026-05-05 17:23 49.10921 2.17603 34826 ft 460 kts 260°
2026-05-05 17:24 49.10017 2.07967 34817 ft 459 kts 259°
2026-05-05 17:24 49.08192 1.98731 34818 ft 454 kts 243°
2026-05-05 17:25 49.05558 1.90082 34822 ft 455 kts 243°
2026-05-05 17:25 49.02900 1.81333 34824 ft 455 kts 243°
2026-05-05 17:26 49.00247 1.72563 34833 ft 457 kts 243°
2026-05-05 17:26 48.97572 1.63779 34831 ft 458 kts 243°
2026-05-05 17:27 48.94914 1.55045 34836 ft 458 kts 243°
2026-05-05 17:27 48.92236 1.46262 34841 ft 458 kts 243°
2026-05-05 17:28 48.89547 1.37499 34843 ft 458 kts 243°
2026-05-05 17:28 48.86849 1.28739 34845 ft 458 kts 243°
2026-05-05 17:29 48.84142 1.19993 34846 ft 458 kts 243°
2026-05-05 17:29 48.81427 1.11243 34844 ft 458 kts 243°
2026-05-05 17:30 48.78711 1.02508 34850 ft 458 kts 243°
2026-05-05 17:30 48.75990 0.93785 34852 ft 458 kts 243°
2026-05-05 17:31 48.73034 0.85346 34866 ft 456 kts 236°
2026-05-05 17:31 48.69728 0.77175 34861 ft 455 kts 236°
2026-05-05 17:32 48.66410 0.69022 34861 ft 455 kts 236°
2026-05-05 17:32 48.63088 0.60880 34864 ft 455 kts 236°
2026-05-05 17:33 48.59768 0.52748 34866 ft 455 kts 236°
2026-05-05 17:33 48.56445 0.44617 34863 ft 455 kts 236°
2026-05-05 17:34 48.53124 0.36519 34861 ft 453 kts 236°
2026-05-05 17:34 48.49799 0.28438 34881 ft 453 kts 236°
2026-05-05 17:35 48.46469 0.20365 35063 ft 453 kts 236°
2026-05-05 17:35 48.44807 0.16350 35382 ft 450 kts 236°
2026-05-05 17:35 48.43154 0.12368 35641 ft 450 kts 236°
2026-05-05 17:36 48.39823 0.04352 35374 ft 451 kts 236°
2026-05-05 17:36 48.38178 0.00404 35154 ft 452 kts 236°
2026-05-05 17:36 48.36502 -0.03589 34924 ft 453 kts 234°
2026-05-05 17:37 48.32793 -0.11257 34863 ft 454 kts 231°
2026-05-05 17:37 48.29015 -0.18867 34868 ft 454 kts 231°
2026-05-05 17:38 48.25233 -0.26474 34881 ft 454 kts 231°
2026-05-05 17:38 48.21384 -0.33992 34882 ft 454 kts 230°
2026-05-05 17:39 48.17535 -0.41509 34877 ft 455 kts 231°
2026-05-05 17:39 48.13690 -0.49024 34874 ft 455 kts 230°
2026-05-05 17:40 48.09835 -0.56527 34873 ft 455 kts 230°
2026-05-05 17:40 48.05977 -0.64026 34878 ft 455 kts 230°
2026-05-05 17:41 48.02140 -0.71451 34878 ft 455 kts 230°
2026-05-05 17:41 47.98269 -0.78915 34884 ft 455 kts 230°
2026-05-05 17:42 47.94386 -0.86375 34872 ft 455 kts 230°
2026-05-05 17:42 47.90510 -0.93824 34875 ft 455 kts 230°
2026-05-05 17:43 47.86632 -1.01258 34892 ft 455 kts 230°
2026-05-05 17:43 47.82742 -1.08682 34888 ft 455 kts 230°
2026-05-05 17:44 47.78851 -1.16090 34885 ft 455 kts 230°
2026-05-05 17:44 47.74948 -1.23502 34885 ft 455 kts 230°
2026-05-05 17:45 47.71039 -1.30898 34885 ft 455 kts 230°
2026-05-05 17:45 47.67154 -1.38237 34886 ft 455 kts 230°
2026-05-05 17:46 47.63235 -1.45608 34884 ft 455 kts 230°
2026-05-05 17:46 47.59263 -1.52895 34883 ft 454 kts 226°
2026-05-05 17:47 47.55050 -1.59875 34885 ft 454 kts 226°
2026-05-05 17:47 47.50822 -1.66813 34890 ft 454 kts 226°
2026-05-05 17:48 47.46597 -1.73745 34884 ft 453 kts 226°
2026-05-05 17:48 47.42378 -1.80663 34882 ft 453 kts 226°
2026-05-05 17:49 47.38154 -1.87571 34903 ft 453 kts 226°
2026-05-05 17:49 47.33644 -1.94002 34904 ft 450 kts 213°
2026-05-05 17:50 47.28333 -1.98844 34908 ft 448 kts 209°
2026-05-05 17:50 47.22969 -2.03549 34905 ft 449 kts 209°
2026-05-05 17:51 47.17651 -2.08278 34905 ft 450 kts 210°
2026-05-05 17:51 47.12290 -2.13057 34906 ft 451 kts 209°
2026-05-05 17:52 47.06914 -2.17840 34904 ft 452 kts 210°
2026-05-05 17:52 47.01538 -2.22595 34904 ft 451 kts 210°
2026-05-05 17:53 46.96158 -2.27352 34905 ft 451 kts 210°
2026-05-05 17:53 46.90781 -2.32104 34911 ft 452 kts 210°
2026-05-05 17:54 46.85388 -2.36840 34908 ft 452 kts 210°
2026-05-05 17:54 46.79990 -2.41580 34908 ft 452 kts 210°
2026-05-05 17:55 46.74589 -2.46303 34910 ft 454 kts 210°
2026-05-05 17:55 46.69171 -2.51051 34914 ft 455 kts 210°
2026-05-05 17:56 46.63783 -2.55751 34915 ft 454 kts 210°
2026-05-05 17:56 46.58362 -2.60467 34920 ft 454 kts 210°
2026-05-05 17:57 46.52938 -2.65176 34919 ft 454 kts 210°
2026-05-05 17:57 46.47507 -2.69880 34918 ft 455 kts 210°
2026-05-05 17:58 46.42074 -2.74583 34917 ft 454 kts 210°
2026-05-05 17:58 46.36640 -2.79272 34922 ft 455 kts 210°
2026-05-05 17:59 46.31189 -2.83959 34926 ft 457 kts 210°
2026-05-05 17:59 46.25825 -2.88864 34924 ft 458 kts 218°
2026-05-05 18:00 46.20984 -2.94745 34924 ft 457 kts 220°
2026-05-05 18:00 46.16129 -3.00701 34928 ft 458 kts 220°
2026-05-05 18:01 46.11270 -3.06620 34941 ft 457 kts 220°
2026-05-05 18:01 46.06409 -3.12525 34932 ft 457 kts 220°
2026-05-05 18:02 46.01552 -3.18410 34931 ft 458 kts 220°
2026-05-05 18:02 45.96669 -3.24313 34931 ft 458 kts 220°
2026-05-05 18:03 45.91785 -3.30203 34939 ft 458 kts 220°
2026-05-05 18:03 45.86911 -3.36067 34941 ft 457 kts 220°
2026-05-05 18:04 45.82033 -3.41921 34940 ft 457 kts 220°
2026-05-05 18:04 45.77189 -3.47718 34947 ft 457 kts 220°
2026-05-05 18:05 45.72303 -3.53556 34946 ft 457 kts 220°
2026-05-05 18:05 45.67416 -3.59379 34953 ft 457 kts 220°
2026-05-05 18:06 45.62532 -3.65186 34959 ft 457 kts 220°
2026-05-05 18:06 45.57637 -3.70989 34959 ft 457 kts 220°
2026-05-05 18:07 45.52733 -3.76778 34963 ft 457 kts 220°
2026-05-05 18:07 45.47838 -3.82550 34965 ft 456 kts 220°
2026-05-05 18:08 45.42945 -3.88308 34966 ft 456 kts 220°
2026-05-05 18:08 45.38032 -3.94082 34970 ft 458 kts 220°
2026-05-05 18:09 45.33123 -3.99855 34969 ft 459 kts 220°
2026-05-05 18:09 45.28206 -4.05610 34973 ft 457 kts 220°
2026-05-05 18:10 45.23293 -4.11342 34973 ft 457 kts 221°
2026-05-05 18:10 45.18384 -4.17060 34977 ft 457 kts 221°
2026-05-05 18:11 45.13494 -4.22736 34980 ft 457 kts 220°
2026-05-05 18:11 45.08586 -4.28421 34978 ft 455 kts 220°
2026-05-05 18:12 45.03688 -4.34091 34977 ft 455 kts 221°
2026-05-05 18:12 44.98783 -4.39749 34983 ft 455 kts 220°
2026-05-05 18:13 44.93873 -4.45400 34989 ft 455 kts 220°
2026-05-05 18:13 44.88964 -4.51036 34984 ft 453 kts 221°
2026-05-05 18:14 44.84076 -4.56638 34985 ft 453 kts 221°
2026-05-05 18:14 44.79182 -4.62237 34990 ft 454 kts 220°
2026-05-05 18:15 44.74272 -4.67839 34995 ft 454 kts 220°
2026-05-05 18:15 44.69358 -4.73428 34994 ft 454 kts 221°
2026-05-05 18:16 44.64440 -4.79010 35000 ft 454 kts 220°
2026-05-05 18:16 44.59522 -4.84588 34996 ft 454 kts 220°
2026-05-05 18:17 44.54602 -4.90150 34997 ft 454 kts 220°
2026-05-05 18:17 44.49633 -4.95532 34992 ft 455 kts 215°
2026-05-05 18:18 44.44288 -5.00239 34997 ft 454 kts 214°
2026-05-05 18:18 44.38930 -5.04905 35006 ft 454 kts 214°
2026-05-05 18:19 44.33571 -5.09573 35008 ft 454 kts 214°
2026-05-05 18:19 44.29120 -5.13444 35005 ft 453 kts 214°
2026-05-05 18:20 44.23776 -5.18075 35018 ft 452 kts 214°
2026-05-05 18:20 44.18435 -5.22713 35015 ft 452 kts 214°
2026-05-05 18:21 44.13093 -5.27339 35013 ft 452 kts 214°
2026-05-05 18:21 44.07743 -5.31945 35014 ft 451 kts 214°
2026-05-05 18:22 44.02402 -5.36552 35022 ft 453 kts 214°
2026-05-05 18:22 43.97037 -5.41162 35031 ft 453 kts 214°
2026-05-05 18:23 43.91668 -5.45761 35031 ft 453 kts 214°
2026-05-05 18:23 43.86301 -5.50349 35027 ft 452 kts 214°
2026-05-05 18:24 43.80945 -5.54920 35034 ft 452 kts 214°
2026-05-05 18:24 43.75622 -5.59451 35039 ft 452 kts 214°
2026-05-05 18:25 43.70263 -5.64007 35038 ft 452 kts 214°
2026-05-05 18:25 43.64911 -5.68546 35037 ft 451 kts 215°
2026-05-05 18:26 43.59553 -5.73082 35033 ft 452 kts 215°
2026-05-05 18:26 43.54186 -5.77619 35049 ft 453 kts 215°
2026-05-05 18:27 43.48810 -5.82151 35050 ft 453 kts 215°
2026-05-05 18:27 43.43439 -5.86668 35049 ft 452 kts 216°
2026-05-05 18:28 43.35385 -5.93426 35050 ft 452 kts 215°
2026-05-05 18:28 43.30008 -5.97922 35052 ft 452 kts 215°
2026-05-05 18:29 43.24677 -6.02372 35037 ft 450 kts 216°
2026-05-05 18:29 43.19326 -6.06830 35046 ft 450 kts 216°
2026-05-05 18:30 43.13965 -6.11290 35044 ft 451 kts 216°
2026-05-05 18:30 43.08591 -6.15740 35045 ft 451 kts 216°
2026-05-05 18:31 43.03226 -6.20181 35036 ft 449 kts 216°
2026-05-05 18:31 42.97872 -6.24599 35038 ft 449 kts 216°
2026-05-05 18:32 42.92528 -6.29008 35038 ft 449 kts 216°
2026-05-05 18:32 42.87179 -6.33419 35027 ft 449 kts 216°
2026-05-05 18:33 42.81841 -6.37803 35022 ft 446 kts 217°
2026-05-05 18:33 42.76524 -6.42161 35030 ft 446 kts 217°
2026-05-05 18:34 42.71212 -6.46508 35032 ft 446 kts 216°
2026-05-05 18:34 42.65927 -6.50818 35019 ft 446 kts 217°
2026-05-05 18:35 42.60604 -6.55156 35029 ft 446 kts 217°
2026-05-05 18:35 42.55285 -6.59479 35027 ft 446 kts 217°
2026-05-05 18:36 42.49960 -6.63800 35024 ft 446 kts 217°
2026-05-05 18:36 42.44637 -6.68107 35026 ft 445 kts 217°
2026-05-05 18:37 42.39323 -6.72401 35018 ft 442 kts 217°
2026-05-05 18:37 42.34037 -6.76663 35045 ft 443 kts 217°
2026-05-05 18:38 42.28741 -6.80926 35039 ft 443 kts 217°
2026-05-05 18:38 42.23447 -6.85180 35012 ft 442 kts 216°
2026-05-05 18:39 42.18172 -6.89408 35022 ft 440 kts 216°
2026-05-05 18:39 42.12913 -6.93613 35033 ft 439 kts 216°
2026-05-05 18:40 42.07653 -6.97814 35030 ft 439 kts 216°
2026-05-05 18:40 42.02429 -7.01980 35030 ft 440 kts 216°
2026-05-05 18:41 41.97164 -7.06165 35010 ft 438 kts 216°
2026-05-05 18:41 41.91946 -7.10306 35023 ft 435 kts 216°